Regional Weather Roundup
Issued by NWS Jackson, KY

Home | Current Version | Previous Version | Text Only | Print | Product List | Glossary On
Versions: 1 2 3 4 5 6 7 8 9 10 11 12 13 14 15 16 17 18 19 20 21 22 23 24 25 26 27
000
ASUS43 KJKL 270810
RWRJKL

EAST KENTUCKY HOURLY WEATHER ROUNDUP
NATIONAL WEATHER SERVICE JACKSON KY
400 AM EDT SAT AUG 27 2016

NOTE: "FAIR" INDICATES FEW OR NO CLOUDS BELOW 12,000 FEET WITH
NO SIGNIFICANT WEATHER AND/OR OBSTRUCTIONS TO VISIBILITY.

* THESE REPORTS ARE NOT UNDER NWS QUALITY CONTROL AND MAY NOT
  REPORT WEATHER SUCH AS PRECIPITATION AND FOG.

KYZ079-080-083-085-087-088-110-112-115-119-120-270900
...EASTERN KENTUCKY...

CITY           SKY/WX    TMP DP  RH WIND       PRES   REMARKS
JACKSON        CLEAR     73  69  87 CALM      30.13F
LONDON         CLOUDY    71  67  87 NE3       30.11F
SOMERSET*      CLOUDY    68  68 100 CALM      30.11F
MONTICELLO*    PTCLDY   N/A N/A N/A W7        30.11F
WILLIAMSBURG*  CLOUDY    70  70 100 CALM      30.11F
MIDDLESBORO*   CLEAR     69  69 100 CALM      30.13F
HARLAN APT*    PTSUNNY   70  68  94 CALM      30.15F
PIKE CO APT*     N/A     72  72 100 CALM      30.14S
BIG SANDY APT* SUNNY     73  73 100 CALM      30.13S
MOREHEAD APT*  SUNNY     72  70  94 CALM      30.13S
$$

KYZ035-036-041-042-044-050-067-078-099-270900
...CENTRAL KENTUCKY...

CITY           SKY/WX    TMP DP  RH WIND       PRES   REMARKS
MT STERLING*   PTCLDY    70  68  94 CALM      30.13F FOG
FLEMING/MASON* CLOUDY    73  72  97 CALM      30.12F
DANVILLE*      PTCLDY    68  68 100 CALM      30.11F
LEXINGTON      CLOUDY    73  69  87 SE3       30.11F
FRANKFORT      CLOUDY    74  70  87 CALM      30.09F
LOUISVILLE     CLOUDY    78  71  79 CALM      30.06F
LEBANON*         N/A     73  72  94 E5        30.09F
GLASGOW*       PTCLDY    74  74 100 CALM      30.08F
BOWLING GREEN  CLOUDY    74  70  87 CALM      30.07F
$$

KYZ091>093-OHZ055-061-077-WVZ005-015-034-035-042-270900
...SOUTHERN OHIO/WEST VIRGINIA...

CITY           SKY/WX    TMP DP  RH WIND       PRES   REMARKS
COVINGTON      CLOUDY    75  72  90 CALM      30.10F
COLUMBUS       CLOUDY    73  64  73 E3        30.12S
DAYTON         PTCLDY    72  69  90 E5        30.13F
WILMINGTON     MOCLDY    72  70  93 E3        30.12S
HUNTINGTON     PTCLDY    73  71  93 NE5       30.10S FOG
CHARLESTON     PTCLDY    72  71  97 CALM      30.12F FOG
PINEVILLE*     FOG       70  66  89 MISG      30.22S VSB 3/4
BECKLEY        CLEAR     68  65  90 S5        30.22S
BLUEFIELD      CLEAR     68  66  93 CALM      30.24S
LOGAN CO APT*    N/A     73  72  94 CALM      30.14F
$$

VAZ002-007-008-TNZ017-027-036-066-071-270900
...SOUTHWEST VIRGINIA/EAST TENNESSEE...

CITY           SKY/WX    TMP DP  RH WIND       PRES   REMARKS
WISE*          PTCLDY    73  61  64 S6        30.23S
JONESVILLE*      N/A     68  68 100 CALM      30.16F
ABINGDON*      CLEAR     71  69  95 CALM      30.19S
BRISTOL        CLEAR     69  67  93 N3        30.16S
MORRISTOWN*    SUNNY     73  70  88 CALM      30.11F
SEVIERVILLE*   SUNNY     72  66  83 CALM      30.10F
KNOXVILLE      PTCLDY    76  70  82 CALM      30.09S
OAK RIDGE      PTCLDY    75  72  90 CALM      30.11
CROSSVILLE     PTCLDY    70  69  97 SE3       30.15S
NASHVILLE      MOCLDY    75  70  84 CALM      30.07S
$$

...KEY TO REMARKS...
VSB - VISIBILITY IN MILES
WCI - WIND CHILL INDEX
HX  - HEAT INDEX

$$




USA.gov is the U.S. government's official web portal to all federal, state and local government web resources and services.